AUA1AE EDDG-LOWW

Flight info

Callsign AUA1AE
Flight time 1h 15m
Altitude 35000
Route DOMEG3Y DOMEG Z841 GMH Q603 TESGA DCT BARSU DCT EKSOS DCT LULAR DCT RUDAP DCT BUDEX BUDEX2W
Aircraft A320/M-SDE3FGHIRWY/LB1

Departure

Time 2026-04-22 18:43
Airport Münster Osnabrück Airport (EDDG)

Arrival

Time 2026-04-22 19:59
Airport Vienna International Airport (LOWW)
Time Latitude Longitude Altitude Speed Heading
2026-04-22 17:38 52.13140 7.69198 174 ft 0 kts 180°
2026-04-22 18:36 52.13145 7.69198 174 ft 2 kts 180°
2026-04-22 18:36 52.13162 7.69198 174 ft 3 kts 180°
2026-04-22 18:37 52.13172 7.69198 174 ft 1 kts 180°
2026-04-22 18:37 52.13178 7.69198 174 ft 0 kts 180°
2026-04-22 18:37 52.13184 7.69198 174 ft 2 kts 180°
2026-04-22 18:37 52.13188 7.69204 174 ft 1 kts 62°
2026-04-22 18:38 52.13191 7.69211 174 ft 0 kts 62°
2026-04-22 18:38 52.13191 7.69213 174 ft 0 kts 62°
2026-04-22 18:39 52.13191 7.69214 174 ft 0 kts 62°
2026-04-22 18:39 52.13192 7.69215 174 ft 1 kts 62°
2026-04-22 18:39 52.13202 7.69247 174 ft 7 kts 62°
2026-04-22 18:39 52.13247 7.69335 174 ft 14 kts
2026-04-22 18:40 52.13344 7.69283 174 ft 15 kts 336°
2026-04-22 18:40 52.13432 7.69211 174 ft 14 kts 326°
2026-04-22 18:40 52.13490 7.69092 174 ft 14 kts 262°
2026-04-22 18:40 52.13442 7.68959 174 ft 14 kts 224°
2026-04-22 18:41 52.13374 7.68865 174 ft 7 kts 174°
2026-04-22 18:41 52.13393 7.69053 174 ft 31 kts 72°
2026-04-22 18:41 52.13476 7.69396 174 ft 32 kts 67°
2026-04-22 18:41 52.13557 7.69735 174 ft 32 kts 73°
2026-04-22 18:42 52.13606 7.69987 174 ft 16 kts 72°
2026-04-22 18:42 52.13666 7.70036 174 ft 10 kts 343°
2026-04-22 18:42 52.13727 7.69988 174 ft 9 kts 334°
2026-04-22 18:42 52.13764 7.69925 174 ft 9 kts 235°
2026-04-22 18:43 52.13736 7.69792 174 ft 32 kts 253°
2026-04-22 18:43 52.13575 7.69003 174 ft 114 kts 253°
2026-04-22 18:43 52.13259 7.67514 382 ft 145 kts 249°
2026-04-22 18:43 52.12930 7.66029 1105 ft 142 kts 252°
2026-04-22 18:44 52.12709 7.64982 1595 ft 143 kts 252°
2026-04-22 18:44 52.12240 7.62754 2302 ft 175 kts 253°
2026-04-22 18:44 52.11957 7.61407 2568 ft 195 kts 253°
2026-04-22 18:44 52.11496 7.59207 3002 ft 221 kts 252°
2026-04-22 18:45 52.10959 7.56757 3668 ft 236 kts 249°
2026-04-22 18:45 52.10083 7.54446 4456 ft 249 kts 229°
2026-04-22 18:45 52.08629 7.52790 5151 ft 263 kts 202°
2026-04-22 18:45 52.06822 7.52143 6049 ft 270 kts 187°
2026-04-22 18:46 52.04922 7.51762 7048 ft 277 kts 186°
2026-04-22 18:46 52.02987 7.51410 8052 ft 282 kts 185°
2026-04-22 18:46 52.01033 7.51072 9022 ft 288 kts 184°
2026-04-22 18:46 51.99016 7.51253 9953 ft 292 kts 171°
2026-04-22 18:47 51.96976 7.51784 10802 ft 302 kts 169°
2026-04-22 18:47 51.94788 7.52386 11100 ft 331 kts 168°
2026-04-22 18:47 51.92477 7.53017 11645 ft 348 kts 168°
2026-04-22 18:47 51.90028 7.53675 12373 ft 359 kts 169°
2026-04-22 18:48 51.87530 7.54340 13169 ft 367 kts 169°
2026-04-22 18:48 51.84976 7.55014 14006 ft 373 kts 169°
2026-04-22 18:48 51.82401 7.55687 14824 ft 377 kts 169°
2026-04-22 18:48 51.79823 7.56361 15613 ft 382 kts 168°
2026-04-22 18:49 51.77175 7.57061 16355 ft 387 kts 168°
2026-04-22 18:49 51.74494 7.57770 17092 ft 392 kts 168°
2026-04-22 18:49 51.71782 7.58486 17813 ft 396 kts 168°
2026-04-22 18:49 51.69100 7.59553 18444 ft 399 kts 160°
2026-04-22 18:50 51.66470 7.61034 19142 ft 402 kts 157°
2026-04-22 18:50 51.63827 7.62590 19842 ft 404 kts 157°
2026-04-22 18:50 51.61172 7.64152 20504 ft 407 kts 157°
2026-04-22 18:50 51.58508 7.65708 21138 ft 410 kts 157°
2026-04-22 18:51 51.55795 7.67282 21753 ft 413 kts 157°
2026-04-22 18:51 51.53088 7.68843 22333 ft 416 kts 158°
2026-04-22 18:51 51.50358 7.70409 22899 ft 419 kts 158°
2026-04-22 18:51 51.47620 7.71977 23233 ft 421 kts 158°
2026-04-22 18:52 51.44850 7.73554 23485 ft 421 kts 158°
2026-04-22 18:52 51.42059 7.75142 23737 ft 423 kts 158°
2026-04-22 18:52 51.39308 7.76703 23985 ft 424 kts 158°
2026-04-22 18:52 51.36514 7.78281 24228 ft 426 kts 158°
2026-04-22 18:53 51.33738 7.79844 24335 ft 427 kts 158°
2026-04-22 18:53 51.31134 7.81308 24361 ft 427 kts 158°
2026-04-22 18:53 51.28118 7.83004 24368 ft 427 kts 158°
2026-04-22 18:53 51.25336 7.84568 24368 ft 427 kts 158°
2026-04-22 18:54 51.22542 7.86136 24368 ft 428 kts 158°
2026-04-22 18:54 51.19741 7.87708 24366 ft 427 kts 158°
2026-04-22 18:54 51.16923 7.89328 24480 ft 429 kts 154°
2026-04-22 18:54 51.14298 7.91606 24893 ft 430 kts 145°
2026-04-22 18:55 51.11776 7.94191 25396 ft 430 kts 144°
2026-04-22 18:55 51.09272 7.96805 25863 ft 432 kts 143°
2026-04-22 18:55 51.06762 7.99418 26291 ft 434 kts 144°
2026-04-22 18:55 51.04246 8.02024 26708 ft 436 kts 144°
2026-04-22 18:56 51.01683 8.04664 27150 ft 438 kts 144°
2026-04-22 18:56 50.99123 8.07281 27549 ft 440 kts 144°
2026-04-22 18:56 50.96537 8.09916 27932 ft 442 kts 144°
2026-04-22 18:56 50.93920 8.12575 28294 ft 445 kts 144°
2026-04-22 18:57 50.91457 8.15489 28552 ft 445 kts 131°
2026-04-22 18:57 50.89640 8.19452 28748 ft 444 kts 116°
2026-04-22 18:57 50.88191 8.23764 29181 ft 443 kts 113°
2026-04-22 18:57 50.86875 8.28133 29580 ft 443 kts 111°
2026-04-22 18:58 50.85574 8.32618 29972 ft 444 kts 111°
2026-04-22 18:58 50.84279 8.37074 30333 ft 446 kts 111°
2026-04-22 18:58 50.83019 8.41377 30655 ft 448 kts 111°
2026-04-22 18:58 50.81667 8.45975 30995 ft 450 kts 112°
2026-04-22 18:59 50.80346 8.50454 31351 ft 451 kts 111°
2026-04-22 18:59 50.79005 8.54988 31728 ft 452 kts 112°
2026-04-22 18:59 50.77675 8.59480 32111 ft 452 kts 112°
2026-04-22 18:59 50.76350 8.63943 32487 ft 452 kts 112°
2026-04-22 19:00 50.75088 8.68184 32848 ft 452 kts 112°
2026-04-22 19:00 50.73729 8.72736 33230 ft 452 kts 112°
2026-04-22 19:00 50.72385 8.77223 33603 ft 451 kts 112°
2026-04-22 19:00 50.71050 8.81674 33968 ft 451 kts 112°
2026-04-22 19:01 50.69715 8.86112 34321 ft 450 kts 112°
2026-04-22 19:01 50.68364 8.90597 34611 ft 451 kts 112°
2026-04-22 19:01 50.67024 8.95036 34834 ft 449 kts 112°
2026-04-22 19:01 50.65677 8.99486 35060 ft 449 kts 112°
2026-04-22 19:02 50.64340 9.03895 35251 ft 449 kts 112°
2026-04-22 19:02 50.62991 9.08337 35316 ft 449 kts 112°
2026-04-22 19:02 50.60289 9.17199 35337 ft 447 kts 112°
2026-04-22 19:03 50.57600 9.25990 35337 ft 446 kts 112°
2026-04-22 19:03 50.54900 9.34786 35342 ft 446 kts 112°
2026-04-22 19:04 50.52184 9.43599 35336 ft 446 kts 112°
2026-04-22 19:04 50.49502 9.52273 35335 ft 446 kts 112°
2026-04-22 19:05 50.46755 9.61122 35334 ft 446 kts 112°
2026-04-22 19:05 50.44035 9.69854 35334 ft 447 kts 112°
2026-04-22 19:06 50.41292 9.78630 35334 ft 447 kts 112°
2026-04-22 19:07 50.37204 9.91649 35336 ft 448 kts 113°
2026-04-22 19:07 50.34410 10.00507 35333 ft 448 kts 113°
2026-04-22 19:08 50.31667 10.09172 35331 ft 447 kts 113°
2026-04-22 19:08 50.28890 10.17913 35330 ft 447 kts 113°
2026-04-22 19:09 50.26120 10.26599 35329 ft 446 kts 113°
2026-04-22 19:09 50.23843 10.33714 35328 ft 446 kts 113°
2026-04-22 19:10 50.20608 10.43793 35325 ft 445 kts 113°
2026-04-22 19:10 50.17828 10.52423 35339 ft 444 kts 113°
2026-04-22 19:11 50.15050 10.61015 35341 ft 443 kts 113°
2026-04-22 19:11 50.12257 10.69623 35337 ft 443 kts 113°
2026-04-22 19:12 50.09479 10.78156 35335 ft 442 kts 113°
2026-04-22 19:12 50.06684 10.86711 35335 ft 442 kts 114°
2026-04-22 19:13 50.03894 10.95218 35333 ft 440 kts 114°
2026-04-22 19:13 50.01107 11.03695 35335 ft 440 kts 114°
2026-04-22 19:14 49.98329 11.12129 35331 ft 446 kts 114°
2026-04-22 19:14 49.95484 11.20770 35327 ft 447 kts 113°
2026-04-22 19:15 49.93100 11.27912 35327 ft 446 kts 114°
2026-04-22 19:15 49.89799 11.37781 35325 ft 445 kts 114°
2026-04-22 19:16 49.86998 11.46163 35323 ft 444 kts 114°
2026-04-22 19:16 49.84165 11.54596 35321 ft 444 kts 114°
2026-04-22 19:17 49.81316 11.63059 35318 ft 443 kts 114°
2026-04-22 19:17 49.78450 11.71528 35315 ft 442 kts 114°
2026-04-22 19:18 49.75603 11.79936 35312 ft 442 kts 114°
2026-04-22 19:18 49.72739 11.88356 35310 ft 442 kts 114°
2026-04-22 19:19 49.69876 11.96744 35309 ft 442 kts 114°
2026-04-22 19:19 49.67481 12.03741 35309 ft 441 kts 114°
2026-04-22 19:20 49.64609 12.12105 35309 ft 441 kts 114°
2026-04-22 19:20 49.61728 12.20468 35309 ft 442 kts 114°
2026-04-22 19:21 49.58819 12.28891 35309 ft 443 kts 114°
2026-04-22 19:21 49.55920 12.37248 35310 ft 443 kts 114°
2026-04-22 19:22 49.53013 12.45604 35310 ft 443 kts 114°
2026-04-22 19:22 49.50103 12.53942 35311 ft 444 kts 114°
2026-04-22 19:23 49.47175 12.62302 35312 ft 444 kts 114°
2026-04-22 19:23 49.44251 12.70625 35313 ft 444 kts 114°
2026-04-22 19:24 49.41281 12.79053 35313 ft 444 kts 115°
2026-04-22 19:24 49.38349 12.87341 35314 ft 444 kts 115°
2026-04-22 19:25 49.35400 12.95655 35315 ft 444 kts 115°
2026-04-22 19:25 49.32432 13.03995 35315 ft 444 kts 115°
2026-04-22 19:26 49.29465 13.12306 35314 ft 444 kts 115°
2026-04-22 19:26 49.26486 13.20621 35314 ft 444 kts 115°
2026-04-22 19:27 49.23519 13.28866 35309 ft 444 kts 115°
2026-04-22 19:27 49.20521 13.37175 35310 ft 444 kts 115°
2026-04-22 19:28 49.17539 13.45411 35309 ft 443 kts 115°
2026-04-22 19:28 49.15194 13.53973 35310 ft 438 kts 104°
2026-04-22 19:29 49.13273 13.62854 35307 ft 438 kts 105°
2026-04-22 19:29 49.11241 13.71624 35033 ft 439 kts 106°
2026-04-22 19:29 49.10184 13.75988 34781 ft 435 kts 107°
2026-04-22 19:30 49.09489 13.78819 34617 ft 433 kts 107°
2026-04-22 19:30 49.08056 13.84566 34282 ft 433 kts 107°
2026-04-22 19:30 49.06959 13.88884 34029 ft 433 kts 107°
2026-04-22 19:30 49.05867 13.93120 33781 ft 433 kts 108°
2026-04-22 19:31 49.04758 13.97363 33531 ft 432 kts 108°
2026-04-22 19:31 49.03637 14.01588 33282 ft 432 kts 108°
2026-04-22 19:31 49.02488 14.05845 33028 ft 427 kts 108°
2026-04-22 19:31 49.01343 14.10026 32778 ft 429 kts 109°
2026-04-22 19:32 49.00201 14.14201 32529 ft 429 kts 108°
2026-04-22 19:32 48.99092 14.18326 32283 ft 428 kts 108°
2026-04-22 19:32 48.97941 14.22592 32028 ft 428 kts 108°
2026-04-22 19:32 48.96797 14.26809 31775 ft 427 kts 108°
2026-04-22 19:33 48.95656 14.30991 31525 ft 428 kts 108°
2026-04-22 19:33 48.94451 14.35078 31277 ft 430 kts 113°
2026-04-22 19:33 48.92979 14.39064 31026 ft 432 kts 116°
2026-04-22 19:33 48.91455 14.43001 30775 ft 428 kts 116°
2026-04-22 19:34 48.89940 14.46894 30524 ft 426 kts 116°
2026-04-22 19:34 48.88441 14.50754 30275 ft 426 kts 116°
2026-04-22 19:34 48.86951 14.54598 30026 ft 424 kts 116°
2026-04-22 19:34 48.85484 14.58390 29780 ft 423 kts 116°
2026-04-22 19:35 48.83965 14.62319 29524 ft 422 kts 116°
2026-04-22 19:35 48.82476 14.66172 29107 ft 422 kts 116°
2026-04-22 19:35 48.80983 14.70034 28554 ft 419 kts 116°
2026-04-22 19:35 48.79525 14.73799 27982 ft 415 kts 116°
2026-04-22 19:36 48.78070 14.77557 27406 ft 413 kts 116°
2026-04-22 19:36 48.76607 14.81335 26599 ft 412 kts 116°
2026-04-22 19:36 48.75167 14.85051 25777 ft 410 kts 116°
2026-04-22 19:36 48.73725 14.88767 24994 ft 406 kts 116°
2026-04-22 19:37 48.72290 14.92457 24238 ft 402 kts 116°
2026-04-22 19:37 48.70870 14.96103 23484 ft 398 kts 116°
2026-04-22 19:37 48.69471 14.99687 22735 ft 395 kts 116°
2026-04-22 19:37 48.68069 15.03272 21980 ft 392 kts 116°
2026-04-22 19:38 48.66718 15.06843 21224 ft 388 kts 112°
2026-04-22 19:38 48.65704 15.10535 20484 ft 383 kts 107°
2026-04-22 19:38 48.64691 15.14251 19734 ft 381 kts 108°
2026-04-22 19:38 48.63774 15.17983 19047 ft 376 kts 104°
2026-04-22 19:39 48.62944 15.21687 18634 ft 366 kts 106°
2026-04-22 19:39 48.62042 15.25220 18196 ft 358 kts 107°
2026-04-22 19:39 48.61132 15.28729 17741 ft 353 kts 107°
2026-04-22 19:39 48.60253 15.32145 17331 ft 351 kts 107°
2026-04-22 19:40 48.59366 15.35622 16951 ft 350 kts 107°
2026-04-22 19:40 48.58495 15.39043 16576 ft 349 kts 107°
2026-04-22 19:40 48.57635 15.42424 16226 ft 344 kts 107°
2026-04-22 19:40 48.56788 15.45752 15923 ft 334 kts 106°
2026-04-22 19:41 48.55958 15.49017 15515 ft 330 kts 106°
2026-04-22 19:41 48.55143 15.52230 15095 ft 325 kts 106°
2026-04-22 19:41 48.54334 15.55405 14693 ft 322 kts 106°
2026-04-22 19:41 48.53542 15.58519 14296 ft 320 kts 106°
2026-04-22 19:42 48.52741 15.61660 13893 ft 318 kts 107°
2026-04-22 19:42 48.51951 15.64757 13495 ft 317 kts 107°
2026-04-22 19:42 48.51152 15.67884 13092 ft 317 kts 107°
2026-04-22 19:42 48.50369 15.70938 12699 ft 315 kts 107°
2026-04-22 19:43 48.48791 15.77095 11893 ft 313 kts 107°
2026-04-22 19:43 48.48004 15.80154 11492 ft 312 kts 107°
2026-04-22 19:43 48.47221 15.83201 11093 ft 313 kts 107°
2026-04-22 19:44 48.46435 15.86251 10690 ft 312 kts 107°
2026-04-22 19:44 48.45643 15.89323 10291 ft 312 kts 107°
2026-04-22 19:44 48.44868 15.92318 9899 ft 312 kts 108°
2026-04-22 19:44 48.44069 15.95410 9594 ft 311 kts 108°
2026-04-22 19:45 48.43280 15.98453 9342 ft 311 kts 108°
2026-04-22 19:45 48.42499 16.01462 9114 ft 311 kts 108°
2026-04-22 19:45 48.41705 16.04511 8935 ft 312 kts 108°
2026-04-22 19:45 48.40916 16.07536 8772 ft 305 kts 108°
2026-04-22 19:46 48.40161 16.10420 8580 ft 293 kts 108°
2026-04-22 19:46 48.39416 16.13269 8361 ft 289 kts 108°
2026-04-22 19:46 48.38695 16.16047 8139 ft 286 kts 108°
2026-04-22 19:46 48.37962 16.18872 7914 ft 286 kts 108°
2026-04-22 19:47 48.37230 16.21656 7692 ft 285 kts 108°
2026-04-22 19:47 48.36507 16.24401 7471 ft 284 kts 108°
2026-04-22 19:47 48.36017 16.26258 7327 ft 284 kts 108°
2026-04-22 19:47 48.35051 16.29927 6993 ft 283 kts 108°
2026-04-22 19:48 48.34339 16.32631 6748 ft 281 kts 108°
2026-04-22 19:48 48.33615 16.35376 6498 ft 280 kts 108°
2026-04-22 19:48 48.32898 16.38092 6248 ft 279 kts 108°
2026-04-22 19:48 48.32188 16.40778 6074 ft 277 kts 108°
2026-04-22 19:49 48.31478 16.43470 6017 ft 277 kts 107°
2026-04-22 19:49 48.30763 16.46176 6014 ft 278 kts 108°
2026-04-22 19:49 48.29958 16.48823 6010 ft 281 kts 116°
2026-04-22 19:49 48.28762 16.51151 6007 ft 285 kts 132°
2026-04-22 19:50 48.27397 16.53293 6007 ft 283 kts 125°
2026-04-22 19:50 48.26221 16.55655 6007 ft 282 kts 123°
2026-04-22 19:50 48.25052 16.58026 6005 ft 283 kts 123°
2026-04-22 19:50 48.23857 16.60412 6004 ft 282 kts 123°
2026-04-22 19:51 48.22665 16.62765 6009 ft 283 kts 124°
2026-04-22 19:51 48.21475 16.65095 6004 ft 283 kts 124°
2026-04-22 19:51 48.20282 16.67416 6012 ft 283 kts 124°
2026-04-22 19:51 48.19093 16.69730 5955 ft 280 kts 124°
2026-04-22 19:52 48.17903 16.72057 5448 ft 276 kts 124°
2026-04-22 19:52 48.16747 16.74336 4932 ft 274 kts 124°
2026-04-22 19:52 48.15598 16.76548 4528 ft 267 kts 126°
2026-04-22 19:52 48.14254 16.78418 4299 ft 256 kts 141°
2026-04-22 19:53 48.12831 16.79942 3962 ft 248 kts 143°
2026-04-22 19:53 48.11445 16.81405 3689 ft 239 kts 143°
2026-04-22 19:53 48.10517 16.82270 3453 ft 236 kts 155°
2026-04-22 19:53 48.08437 16.82484 3078 ft 221 kts 197°
2026-04-22 19:54 48.07044 16.81719 3013 ft 206 kts 203°
2026-04-22 19:54 48.05763 16.80872 2976 ft 196 kts 218°
2026-04-22 19:54 48.05167 16.79918 2973 ft 185 kts 244°
2026-04-22 19:54 48.04851 16.77625 2980 ft 163 kts 278°
2026-04-22 19:55 48.04946 16.76500 3001 ft 162 kts 284°
2026-04-22 19:55 48.05150 16.74862 2974 ft 158 kts 297°
2026-04-22 19:55 48.05693 16.73465 3111 ft 159 kts 302°
2026-04-22 19:55 48.06198 16.71970 2852 ft 159 kts 299°
2026-04-22 19:56 48.06682 16.70509 2585 ft 157 kts 299°
2026-04-22 19:56 48.07157 16.69058 2336 ft 154 kts 298°
2026-04-22 19:56 48.07626 16.67625 2135 ft 154 kts 298°
2026-04-22 19:56 48.08100 16.66179 1904 ft 154 kts 297°
2026-04-22 19:57 48.08565 16.64746 1691 ft 154 kts 297°
2026-04-22 19:57 48.09053 16.63248 1490 ft 167 kts 297°
2026-04-22 19:57 48.09521 16.61807 1254 ft 141 kts 297°
2026-04-22 19:57 48.09923 16.60573 1065 ft 125 kts 297°
2026-04-22 19:58 48.10301 16.59413 933 ft 123 kts 297°
2026-04-22 19:58 48.10677 16.58260 767 ft 123 kts 297°
2026-04-22 19:58 48.11052 16.57107 624 ft 121 kts 297°
2026-04-22 19:58 48.11361 16.56184 615 ft 74 kts 297°
2026-04-22 19:59 48.11515 16.55689 615 ft 41 kts 296°
2026-04-22 20:00 48.11873 16.55234 615 ft 16 kts 101°
2026-04-22 20:00 48.11826 16.55383 615 ft 16 kts 114°
2026-04-22 20:01 48.11785 16.55518 615 ft 13 kts 114°
2026-04-22 20:01 48.11747 16.55643 615 ft 13 kts 114°
2026-04-22 20:01 48.11699 16.55796 615 ft 23 kts 119°
2026-04-22 20:01 48.11601 16.56062 615 ft 33 kts 118°
2026-04-22 20:02 48.11528 16.56298 615 ft 21 kts 113°
2026-04-22 20:02 48.11466 16.56472 615 ft 18 kts 121°
2026-04-22 20:02 48.11419 16.56629 615 ft 16 kts 113°
2026-04-22 20:02 48.11375 16.56783 615 ft 17 kts 113°
2026-04-22 20:03 48.11320 16.56962 615 ft 21 kts 116°
2026-04-22 20:03 48.11252 16.57164 615 ft 21 kts 117°
2026-04-22 20:03 48.11297 16.57328 615 ft 21 kts 26°
2026-04-22 20:03 48.11429 16.57424 615 ft 21 kts 25°
2026-04-22 20:04 48.11564 16.57454 615 ft 20 kts 342°
2026-04-22 20:04 48.11699 16.57394 615 ft 19 kts 348°
2026-04-22 20:04 48.11795 16.57292 615 ft 19 kts 276°
2026-04-22 20:04 48.11839 16.57129 615 ft 17 kts 300°
2026-04-22 20:05 48.11891 16.56970 615 ft 17 kts 295°
2026-04-22 20:05 48.11934 16.56826 615 ft 12 kts 293°
2026-04-22 20:05 48.11956 16.56745 615 ft 4 kts 256°
2026-04-22 20:05 48.11932 16.56720 615 ft 4 kts 204°
2026-04-22 20:06 48.11912 16.56706 615 ft 1 kts 205°
2026-04-22 20:06 48.11911 16.56706 615 ft 0 kts 205°